CAPE
0 0 0 0 0 0 0 0 0 0 0 0 0 0 0 0 0 0 0 0 0 0 0 0 0 0 0 0 0 0 0 0 0 0 0 0 304 436 264 259 281 336 561
0 0 0 0 0 0 0 0 0 0 0 0 0 0 0 0 0 0 0 0 0 0 0 0 0 0 0 0 0 0 0 0 0 0 0 1 104 85 108 335 460 406 429
0 0 0 0 0 0 0 0 0 0 0 0 0 0 0 0 0 0 0 0 0 0 0 0 0 0 0 0 0 0 0 0 0 0 0 0 1 0 9 8 123 19 1
0 0 0 0 0 0 0 0 0 0 0 0 0 0 0 0 0 0 0 0 0 0 0 0 0 0 0 0 0 0 0 0 0 0 0 1 2 5 0 0 0 0 0
0 0 0 0 0 0 0 0 0 0 0 0 0 0 0 0 0 0 0 0 0 0 0 0 0 0 0 0 0 0 0 0 0 0 0 0 1 2 2 0 0 0 0
0 0 0 0 0 0 0 0 0 0 0 0 0 0 0 0 0 0 0 0 0 0 0 0 0 0 0 0 0 0 0 0 0 0 0 0 0 0 0 4 0 0 0
0 0 0 0 0 0 0 0 0 0 0 0 0 0 0 0 0 0 0 0 0 0 0 0 0 0 0 0 0 0 0 0 0 0 0 0 0 0 0 0 0 0 0
0 0 0 0 0 0 0 0 0 0 0 0 0 0 0 0 0 0 0 0 0 0 0 0 0 0 0 0 0 0 0 0 0 0 0 0 0 0 0 0 0 0 0
0 0 0 0 0 0 0 0 0 0 0 0 0 0 0 0 0 0 0 0 0 0 0 0 0 0 0 0 0 0 0 0 0 0 0 0 0 0 0 0 0 0 0
0 0 0 0 0 0 0 0 0 0 0 0 0 0 0 0 0 0 0 0 0 0 0 0 0 0 0 0 0 0 0 0 0 0 0 0 0 0 0 0 0 0 0
0 0 0 0 0 0 0 0 0 0 0 0 0 0 0 0 0 0 0 0 0 0 0 0 0 0 0 0 0 0 0 0 0 0 0 0 0 0 0 0 0 0 0
0 0 0 0 0 0 0 0 0 0 0 0 0 0 0 0 0 0 0 0 0 0 0 0 0 0 0 0 0 0 0 0 0 0 0 0 0 0 0 0 0 0 0
0 0 0 0 0 0 0 0 0 0 0 0 0 0 0 0 0 0 0 0 0 0 0 0 0 0 0 0 0 0 0 0 0 0 0 0 0 0 0 0 0 0 0
0 0 0 0 0 0 0 0 0 0 0 0 0 0 0 0 0 0 0 0 0 0 0 0 0 0 0 0 0 0 0 0 0 0 0 0 0 0 0 0 0 0 0
0 0 0 0 0 0 0 0 0 0 0 0 0 0 0 0 0 0 0 0 0 0 0 0 0 0 0 0 8 1 0 3 8 11 8 0 0 0 0 0 0 0 0
0 0 0 0 0 0 0 0 0 0 0 0 0 0 0 0 0 0 0 0 0 0 0 0 0 0 0 0 0 0 5 6 3 7 17 10 0 0 0 0 0 0 0
0 0 0 0 0 0 0 0 0 0 0 0 0 0 0 0 0 0 0 0 0 0 0 0 0 0 0 0 0 0 0 4 10 9 6 13 6 0 0 0 0 0 0
0 0 0 0 0 0 0 0 0 0 0 0 0 0 0 0 0 0 0 0 0 0 0 0 0 0 0 0 0 0 8 10 12 17 15 17 10 0 0 0 0 0 0
0 0 0 0 0 0 0 0 0 0 0 0 0 0 0 0 0 0 0 0 1 1 1 1 0 1 2 3 0 0 9 6 9 13 10 13 17 1 0 0 0 0 0
0 0 0 0 0 0 0 0 0 0 0 0 0 0 0 0 0 0 0 0 2 2 4 8 8 10 12 18 0 2 10 4 2 8 5 7 11 0 0 0 0 0 0
0 0 0 0 0 0 0 0 0 0 0 0 0 0 0 0 0 0 1 2 6 7 9 11 21 26 21 25 8 0 0 2 1 1 2 6 0 0 0 0 0 0 1
0 0 0 0 0 0 0 0 0 0 0 0 0 0 0 0 0 0 0 0 1 8 6 0 1 17 23 9 5 2 0 1 1 1 1 4 4 0 1 0 0 0 0
0 0 0 0 0 0 0 0 0 0 0 0 0 0 0 0 0 0 0 0 12 10 3 0 1 4 8 11 5 1 7 2 1 1 0 1 1 2 0 0 1 0 0
0 0 0 0 0 0 0 0 0 0 0 0 0 0 0 0 0 0 3 7 7 7 4 0 1 0 1 1 2 7 5 4 2 1 1 0 0 0 0 0 0 0 6
0 0 0 0 0 0 0 0 0 0 0 0 0 0 0 0 0 4 8 2 1 2 2 2 2 6 1 0 8 1 1 2 0 0 0 0 0 0 0 0 0 7 11
0 0 0 0 0 0 0 0 0 0 1 4 5 3 0 0 2 2 2 0 0 0 0 1 7 2 3 2 1 0 0 0 0 1 0 0 0 0 0 0 0 0 0
CIN
-0 -0 -0 -0 -0 -0 -0 -0 -0 -0 -0 -0 -0 -0 -0 -0 -0 -0 -0 -0 -0 -0 -0 -0 -0 -0 -0 -0 -0 -0 -0 -0 -0 -0 -0 -0 -1 -1 -1 -2 -1 -1 -1
-0 -0 -0 -0 -0 -0 -0 -0 -0 -0 -0 -0 -0 -0 -0 -0 -0 -0 -0 -0 -0 -0 -0 -0 -0 -0 -0 -0 -0 -0 -0 -0 -0 -0 -0 -0 -5 -23 -12 -1 -2 -2 -1
-0 -0 -0 -0 -0 -0 -0 -0 -0 -0 -0 -0 -0 -0 -0 -0 -0 -0 -0 -0 -0 -0 -0 -0 -0 -0 -0 -0 -0 -0 -0 -0 -0 -0 -0 -0 -0 -0 -4 -2 -0 -2 -7
-0 -0 -0 -0 -0 -0 -0 -0 -0 -0 -0 -0 -0 -0 -0 -0 -0 -0 -0 -0 -0 -0 -0 -0 -0 -0 -0 -0 -0 -0 -0 -0 -0 -0 -0 -0 -0 -0 -0 -0 -0 -0 -0
-0 -0 -0 -0 -0 -0 -0 -0 -0 -0 -0 -0 -0 -0 -0 -0 -0 -0 -0 -0 -0 -0 -0 -0 -0 -0 -0 -0 -0 -0 -0 -0 -0 -0 -0 -0 -0 -5 -0 -0 -0 -0 -0
-0 -0 -0 -0 -0 -0 -0 -0 -0 -0 -0 -0 -0 -0 -0 -0 -0 -0 -0 -0 -0 -0 -0 -0 -0 -0 -0 -0 -0 -0 -0 -0 -0 -0 -0 -0 -0 -0 -0 -0 -0 -0 -0
-0 -0 -0 -0 -0 -0 -0 -0 -0 -0 -0 -0 -0 -0 -0 -0 -0 -0 -0 -0 -0 -0 -0 -0 -0 -0 -0 -0 -0 -0 -0 -0 -0 -0 -0 -0 -0 -0 -0 -0 -0 -0 -0
-0 -0 -0 -0 -0 -0 -0 -0 -0 -0 -0 -0 -0 -0 -0 -0 -0 -0 -0 -0 -0 -0 -0 -0 -0 -0 -0 -0 -0 -0 -0 -0 -0 -0 -0 -0 -0 -0 -0 -0 -0 -0 -0
-0 -0 -0 -0 -0 -0 -0 -0 -0 -0 -0 -0 -0 -0 -0 -0 -0 -0 -0 -0 -0 -0 -0 -0 -0 -0 -0 -0 -0 -0 -0 -0 -0 -0 -0 -0 -0 -0 -0 -0 -0 -0 -0
-0 -0 -0 -0 -0 -0 -0 -0 -0 -0 -0 -0 -0 -0 -0 -0 -0 -0 -0 -0 -0 -0 -0 -0 -0 -0 -0 -0 -0 -0 -0 -0 -0 -0 -0 -0 -0 -0 -0 -0 -0 -0 -0
-0 -0 -0 -0 -0 -0 -0 -0 -0 -0 -0 -0 -0 -0 -0 -0 -0 -0 -0 -0 -0 -0 -0 -0 -0 -0 -0 -0 -0 -0 -0 -0 -0 -0 -0 -0 -0 -0 -0 -0 -0 -0 -0
-0 -0 -0 -0 -0 -0 -0 -0 -0 -0 -0 -0 -0 -0 -0 -0 -0 -0 -0 -0 -0 -0 -0 -0 -0 -0 -0 -0 -0 -0 -0 -0 -0 -0 -0 -0 -0 -0 -0 -0 -0 -0 -0
-0 -0 -0 -0 -0 -0 -0 -0 -0 -0 -0 -0 -0 -0 -0 -0 -0 -0 -0 -0 -0 -0 -0 -0 -0 -0 -0 -0 -0 -0 -0 -0 -0 -0 -0 -0 -0 -0 -0 -0 -0 -0 -0
-0 -0 -0 -0 -0 -0 -0 -0 -0 -0 -0 -0 -0 -0 -0 -0 -0 -0 -0 -0 -0 -0 -0 -0 -0 -0 -0 -0 -0 -0 -0 -0 -0 -0 -0 -0 -0 -0 -0 -0 -0 -0 -0
-0 -0 -0 -0 -0 -0 -0 -0 -0 -0 -0 -0 -0 -0 -0 -0 -0 -0 -0 -0 -0 -0 -0 -0 -0 -0 -0 -0 -1 -1 -0 -1 -2 -0 -1 -0 -0 -0 -0 -0 -0 -0 -0
-0 -0 -0 -0 -0 -0 -0 -0 -0 -0 -0 -0 -0 -0 -0 -0 -0 -0 -0 -0 -0 -0 -0 -0 -0 -0 -0 -0 -0 -0 -1 -1 -2 -1 -2 -1 -0 -0 -0 -0 -0 -0 -0
-0 -0 -0 -0 -0 -0 -0 -0 -0 -0 -0 -0 -0 -0 -0 -0 -0 -0 -0 -0 -0 -0 -0 -0 -0 -0 -0 -0 -0 -0 -2 -1 -1 -1 -0 -3 -2 -0 -0 -0 -0 -0 -0
-0 -0 -0 -0 -0 -0 -0 -0 -0 -0 -0 -0 -0 -0 -0 -0 -0 -0 -0 -0 -0 -0 -0 -0 -0 -0 -1 -0 -0 -0 -0 -1 -0 -1 -0 -0 -1 -0 -0 -0 -0 -0 -0
-0 -0 -0 -0 -0 -0 -0 -0 -0 -0 -0 -0 -0 -0 -0 -0 -0 -0 -0 -0 -2 -2 -2 -1 -1 -1 -2 -4 -1 -1 -0 -2 -0 -0 -0 -0 -0 -1 -0 -0 -0 -0 -0
-0 -0 -0 -0 -0 -0 -0 -0 -0 -0 -0 -0 -0 -0 -0 -0 -0 -0 -0 -3 -4 -2 -4 -3 -3 -3 -2 -5 -0 -1 -0 -0 -0 -0 -0 -3 -12 -0 -0 -0 -0 -0 -0
-0 -0 -0 -0 -0 -0 -0 -0 -0 -0 -0 -0 -0 -0 -0 -0 -0 -0 -3 -4 -3 -3 -4 -3 -2 -3 -2 -3 -5 -0 -1 -0 -0 -0 -0 -0 -0 -0 -0 -0 -0 -0 -1
-0 -0 -0 -0 -0 -0 -0 -0 -0 -0 -0 -0 -0 -0 -0 -0 -0 -0 -0 -0 -4 -5 -4 -0 -0 -3 -3 -6 -4 -4 -0 -2 -0 -0 -0 -0 -0 -0 -0 -0 -0 -0 -0
-0 -0 -0 -0 -0 -0 -0 -0 -0 -0 -0 -0 -0 -0 -0 -0 -0 -0 -0 -4 -4 -4 -5 -0 -2 -4 -2 -2 -2 -2 -2 -1 -0 -0 -0 -0 -0 -0 -0 -0 -0 -0 -0
-0 -0 -0 -0 -0 -0 -0 -0 -0 -0 -0 -0 -0 -0 -0 -0 -0 -0 -4 -4 -4 -4 -4 -0 -1 -0 -0 -0 -3 -0 -0 -0 -0 -0 -0 -0 -0 -0 -0 -0 -0 -0 -0
-0 -0 -0 -0 -0 -0 -0 -0 -0 -0 -0 -0 -0 -4 -0 -0 -0 -3 -3 -4 -2 -2 -2 -1 -0 -0 -0 -0 -0 -0 -0 -0 -0 -0 -0 -0 -0 -0 -0 -0 -0 -0 -0
-0 -0 -0 -0 -0 -0 -0 -0 -0 -1 -4 -4 -5 -6 -0 -3 -4 -6 -4 -0 -0 -0 -0 -1 -0 -0 -0 -0 -0 -0 -0 -0 -0 -0 -0 -0 -0 -0 -0 -0 -0 -0 -0
Wind_Speed
16 17 18 19 20 22 24 25 26 26 25 25 25 25 25 26 26 27 28 28 28 29 29 27 28 28 27 28 29 29 28 28 29 28 29 27 19 18 23 23 24 23 24
13 14 15 17 19 20 22 24 24 25 26 25 25 24 24 24 25 26 26 28 28 28 28 28 28 28 27 28 28 29 28 26 28 27 26 25 24 19 23 23 24 24 26
12 13 14 16 17 18 19 20 22 23 24 25 25 23 23 23 25 26 26 26 27 28 28 28 28 28 27 28 28 28 28 27 27 25 25 25 23 30 20 24 22 26 29
10 13 13 14 16 17 17 18 19 21 23 24 25 26 26 26 26 26 26 26 26 26 27 27 27 27 27 27 27 27 27 27 27 25 25 23 23 23 26 25 30 31 32
8 11 12 13 15 16 16 16 18 20 22 23 24 25 26 25 25 27 27 27 27 27 27 26 27 27 26 27 27 28 28 26 26 26 26 25 23 22 25 30 30 32 30
6 9 11 12 14 14 14 15 16 18 20 22 23 24 25 26 26 27 27 28 28 27 27 27 27 27 27 27 27 26 26 27 26 26 25 25 24 27 26 29 33 34 31
5 7 9 11 13 14 14 14 15 16 19 21 23 25 25 26 27 27 28 29 29 29 29 29 29 28 28 27 27 27 26 26 26 26 25 24 25 26 28 31 32 33 34
4 5 8 10 12 13 14 15 17 18 21 23 25 27 27 28 29 28 30 30 30 30 30 29 29 29 29 28 27 27 27 26 26 26 26 26 24 25 26 29 33 36 33
3 4 7 9 11 14 15 18 20 21 23 25 27 29 30 31 31 32 31 32 32 32 31 31 31 30 30 30 30 29 29 27 27 27 27 27 27 27 27 27 28 31 38
4 5 8 11 14 16 18 20 22 24 26 28 29 30 31 32 33 34 35 36 36 36 36 36 35 34 33 31 31 31 30 29 29 28 28 29 29 29 28 28 27 28 32
5 8 11 13 16 19 21 23 25 27 29 30 31 31 32 33 34 35 37 38 39 39 39 40 39 38 37 35 34 33 33 33 32 31 31 32 32 32 32 31 31 31 31
9 12 14 16 17 20 22 24 26 28 30 31 32 33 34 35 35 36 36 37 38 38 39 40 41 41 40 39 38 38 36 35 35 35 34 34 33 34 34 34 34 34 34
12 13 15 17 19 22 24 25 27 30 31 33 34 35 37 38 38 38 38 39 39 39 40 40 41 41 41 41 41 40 40 39 38 36 36 35 34 35 34 35 35 35 34
14 15 17 19 21 23 25 27 29 31 33 35 36 38 39 40 40 40 41 41 42 42 42 43 43 43 43 43 42 42 42 42 41 40 38 36 35 34 34 35 35 35 35
15 17 19 21 23 24 26 28 30 32 35 36 37 38 39 40 41 41 43 44 44 45 45 46 46 46 46 44 44 45 45 46 45 42 40 38 37 35 34 33 34 34 35
16 18 20 22 24 26 28 29 31 33 35 37 38 39 40 42 43 44 45 46 46 47 47 47 48 48 46 47 49 49 51 51 51 48 43 40 38 36 35 34 34 34 35
17 19 21 22 24 26 28 31 33 35 37 38 39 41 42 44 45 46 47 47 48 48 48 48 49 50 49 49 51 52 53 53 50 49 46 43 39 35 34 34 33 33 33
17 20 21 23 25 27 31 33 35 36 38 39 40 42 43 45 46 47 47 48 48 48 49 50 50 51 51 52 54 55 54 52 50 48 47 45 42 37 34 33 33 32 31
18 20 21 24 27 30 33 35 37 38 39 39 41 42 44 45 47 48 49 48 48 49 50 50 52 51 52 51 53 53 54 54 54 50 48 45 42 38 33 34 35 35 33
18 21 24 26 29 32 34 36 38 39 39 40 41 42 44 45 47 47 48 48 49 50 51 52 51 53 54 51 50 51 52 54 53 53 51 47 42 36 32 33 33 35 33
19 23 26 29 31 33 35 37 39 39 39 39 41 42 43 45 45 47 48 51 51 52 52 54 53 53 52 52 50 49 50 50 51 49 47 42 34 31 28 31 31 31 30
22 25 29 31 32 34 36 38 39 39 39 40 41 42 43 45 46 49 50 50 51 52 53 53 52 49 50 49 49 46 45 44 45 45 43 41 37 33 32 28 28 27 27
26 28 31 33 34 35 36 39 39 39 40 41 42 44 45 46 48 50 50 51 50 51 51 50 49 47 46 46 45 45 42 41 41 40 41 42 39 32 33 28 28 27 28
29 30 33 35 36 36 37 38 39 39 40 42 43 44 46 47 48 48 48 48 49 48 46 46 46 44 44 45 45 50 42 39 36 37 37 35 28 29 26 23 25 27 27
30 33 35 36 37 37 38 38 38 39 41 42 43 45 45 47 49 47 46 46 43 41 41 40 40 42 43 43 46 48 43 34 33 37 35 32 27 23 23 21 23 25 27
34 35 36 37 38 38 38 38 38 39 41 43 43 44 45 46 46 47 47 40 37 35 33 31 31 35 34 40 46 44 42 34 34 34 34 31 29 27 26 26 25 24 25
Wind_Direction
58 49 45 39 34 27 19 13 9 7 5 3 2 5 10 6 7 7 5 5 1 355 353 350 346 344 343 342 339 334 327 325 326 319 313 307 299 298 301 308 305 304 305
61 54 47 42 35 31 25 19 12 5 1 2 359 0 7 11 9 6 6 4 2 1 360 352 347 344 344 344 342 340 337 336 336 328 321 316 310 311 308 308 308 307 304
52 46 44 40 34 32 29 25 18 10 1 356 360 6 11 8 1 360 1 0 359 359 356 354 353 350 346 342 342 341 340 338 340 343 335 322 314 309 310 313 313 311 304
45 36 37 37 33 29 28 26 20 11 3 358 359 359 357 352 349 351 353 355 355 358 357 355 353 352 349 347 343 342 341 342 341 340 340 337 331 323 311 309 306 304 301
43 33 36 36 29 24 25 23 18 9 359 354 354 354 356 356 354 352 349 346 341 343 349 352 351 345 356 350 346 342 340 340 338 340 337 334 333 332 321 313 311 307 305
48 34 34 33 27 24 23 21 17 9 1 353 348 350 349 347 345 343 343 339 340 341 342 342 344 342 341 340 345 348 340 336 336 340 344 341 337 326 326 318 310 309 310
61 40 32 27 23 22 22 20 15 9 1 353 344 340 339 337 336 336 335 334 334 335 336 337 337 336 338 338 338 338 340 341 339 340 341 342 336 329 324 316 315 312 307
79 47 30 24 19 19 17 11 6 0 352 346 340 333 329 328 327 327 325 326 327 328 330 332 333 334 336 334 335 333 332 333 334 334 335 332 335 333 329 323 314 308 312
84 41 23 15 9 5 2 357 353 349 346 341 335 330 325 321 319 319 319 319 319 320 322 323 324 326 328 328 327 326 325 326 326 325 326 326 326 325 325 324 322 316 303
44 20 9 1 355 353 351 347 343 341 339 337 334 330 326 322 319 316 314 313 313 313 313 314 315 316 318 319 319 319 320 319 319 319 319 318 318 317 318 318 317 316 311
13 5 357 353 350 347 347 347 344 342 340 339 337 335 332 328 323 319 316 313 311 310 309 309 309 309 310 311 311 311 311 311 312 311 311 311 311 310 310 311 310 309 309
359 356 353 352 353 350 348 347 344 341 339 338 336 335 333 332 330 326 323 320 316 314 312 310 308 307 306 306 304 304 304 304 304 304 304 305 306 305 305 305 304 304 304
352 358 356 353 351 348 346 345 342 340 338 337 335 333 331 329 327 326 324 322 320 318 316 314 312 310 308 305 303 301 300 298 297 297 298 299 301 301 302 302 301 301 301
351 350 351 351 350 347 345 343 341 339 337 335 333 331 330 328 326 325 323 322 320 318 316 314 312 311 309 307 305 302 299 297 295 293 291 292 294 296 298 299 298 299 299
349 348 347 346 347 345 343 342 340 338 337 335 333 333 332 331 329 326 324 322 320 318 317 315 313 312 310 308 306 304 301 299 295 291 288 287 287 289 291 295 296 296 297
346 346 346 345 345 344 342 342 340 338 338 336 334 333 331 329 327 325 324 322 320 319 317 315 314 312 311 309 308 306 301 298 295 292 288 285 284 283 285 288 290 291 293
346 345 345 345 345 343 342 340 338 337 335 333 332 331 330 328 327 325 324 322 321 320 319 317 315 313 311 311 310 307 304 299 296 292 287 283 282 279 283 284 286 287 287
347 345 345 345 344 343 340 338 337 335 334 333 332 331 330 328 327 326 325 324 323 321 320 318 316 314 312 311 310 309 306 302 297 293 288 281 278 276 276 281 284 286 286
348 346 346 344 342 340 339 337 335 334 333 333 332 332 331 329 328 327 326 325 323 322 320 318 316 314 313 313 312 310 308 304 300 296 290 282 275 274 269 277 282 283 285
346 344 344 341 339 338 338 337 335 335 334 333 333 332 331 330 328 328 327 326 324 321 321 318 317 315 313 314 313 311 310 307 304 300 295 286 271 270 265 272 278 279 283
343 343 340 338 338 339 338 336 335 334 335 334 333 332 331 331 330 329 328 325 324 322 321 319 317 316 315 314 313 313 312 309 308 305 300 294 280 264 263 271 274 276 281
340 339 338 337 338 337 337 335 334 335 334 334 333 332 332 332 330 329 328 327 325 323 322 321 319 318 319 319 319 316 315 313 312 310 306 295 281 269 266 266 269 271 274
339 339 337 336 337 336 336 334 334 335 334 333 333 333 333 332 332 330 329 328 327 325 323 323 322 322 323 324 324 322 318 316 315 314 310 302 284 272 268 263 266 267 271
338 338 337 336 335 336 335 334 335 335 334 333 333 334 333 333 332 332 331 329 328 327 326 325 325 325 325 326 326 321 317 315 317 315 313 310 301 278 274 270 264 270 278
339 338 336 335 335 335 335 335 336 336 335 334 334 334 334 334 333 333 331 331 330 331 329 328 329 329 327 327 324 321 317 315 315 311 308 301 300 292 281 280 277 281 281
338 337 337 336 335 335 335 336 337 337 335 334 335 335 335 335 335 334 334 335 335 334 334 333 334 335 335 329 320 315 316 315 312 308 302 295 290 291 285 286 286 287 286